Regional Weather Roundup
Issued by NWS

Home | Current Version | Previous Version | Text Only | Print | Product List | Glossary On
Versions: 1 2 3 4 5 6 7 8 9 10 11 12 13 14 15 16 17 18 19 20 21 22 23 24 25 26 27
000
ASCA42 TJSJ 280210
RWRPR
PUERTO RICO/U.S. VIRGIN ISLANDS HOURLY WEATHER ROUNDUP
NATIONAL WEATHER SERVICE SAN JUAN PR
1000 PM AST FRI MAY 27 2016

PRZ001-004-280300-
PUERTO RICO

CITY           SKY/WX    TMP DP  RH WIND       PRES   REMARKS
SAN JUAN LMM   MOCLDY    79  73  83 E13       29.99R
AGUADILLA      CLEAR     79  75  89 CALM      29.99R
CEIBA          PTCLDY    81  75  83 E6        30.01R
$$

PRZ006-007-280300-
U.S. VIRGIN ISLANDS

CITY           SKY/WX    TMP DP  RH WIND       PRES   REMARKS
CHARLOTTE AMA  CLOUDY    82  73  74 E8        29.98R
CHRISTIANSTED  PTCLDY    82  73  74 E12       29.99R
$$

HOURLY WEATHER ROUNDUP FOR THE NEWS MEDIA

CITY           SKY/WX    TMP DP  RH WIND       PRES   REMARKS
ORLANDO        CLEAR     78  67  68 NE7       30.01R
NEW YORK       MOCLDY    68  59  73 S15       30.07R
NEWARK         MOCLDY    80  66  62 S13G18    30.04R
CHICAGO        LGT RAIN  75  65  70 S25G38    29.85R
HARTFORD       CLEAR     67  55  65 SW13G21   30.08R
BOSTON         PTCLDY    69  61  75 S7        30.04R
DALLAS         PTCLDY    72  63  73 S9        29.76R
PHILADELPHIA   MOCLDY    78  65  63 S8        30.09R
LOS ANGELES    PTSUNNY   61  55  81 SW13      29.86R
WASHINGTON DC  MOCLDY    80  67  64 S5        30.08R



USA.gov is the U.S. government's official web portal to all federal, state and local government web resources and services.